SBI142 UIII-UNNT

Flight info

Callsign SBI142
Flight time N/A
Altitude 38000
Route BOGRA5C BOGRA A815 TUTEK M97 LIBZI R497 LONKA A822 LAPAK B151 KESED B926 NATIR NATIR1M
Aircraft B738/M-SDE2E3FGHIRWXY/LB1

Departure

Time N/A
Airport Irkutsk International Airport (UIII)

Arrival

Time 2026-04-27 17:57
Airport Novosibirsk Tolmachevo Airport (UNNT)
Time Latitude Longitude Altitude Speed Heading
2026-04-27 16:08 53.71792 101.88253 38131 ft 422 kts 285°
2026-04-27 16:09 53.74117 101.68989 38124 ft 421 kts 284°
2026-04-27 16:10 53.76434 101.49513 38116 ft 424 kts 284°
2026-04-27 16:11 53.78158 101.34822 38118 ft 425 kts 284°
2026-04-27 16:12 53.79868 101.20086 38114 ft 426 kts 284°
2026-04-27 16:13 53.81563 101.05323 38109 ft 426 kts 283°
2026-04-27 16:13 53.83232 100.90619 38105 ft 425 kts 283°
2026-04-27 16:14 53.85423 100.71027 38107 ft 421 kts 283°
2026-04-27 16:15 53.87568 100.51563 38115 ft 419 kts 282°
2026-04-27 16:16 53.89659 100.32292 38113 ft 416 kts 282°
2026-04-27 16:17 53.91716 100.13030 38114 ft 415 kts 282°
2026-04-27 16:18 53.93576 99.95345 38116 ft 416 kts 282°
2026-04-27 16:19 53.94575 99.85739 38124 ft 416 kts 282°
2026-04-27 16:20 53.96570 99.66307 38120 ft 418 kts 282°
2026-04-27 16:21 53.98048 99.51699 38124 ft 419 kts 281°
2026-04-27 16:22 53.99990 99.32217 38125 ft 420 kts 281°
2026-04-27 16:22 54.01432 99.17532 38115 ft 419 kts 281°
2026-04-27 16:23 54.02852 99.02884 38144 ft 419 kts 280°
2026-04-27 16:24 54.03790 98.93106 38138 ft 418 kts 279°
2026-04-27 16:24 54.05079 98.83486 38154 ft 417 kts 290°
2026-04-27 16:25 54.07716 98.74732 38163 ft 416 kts 299°
2026-04-27 16:26 54.13456 98.57854 38163 ft 416 kts 299°
2026-04-27 16:27 54.19167 98.40704 38151 ft 415 kts 298°
2026-04-27 16:28 54.26272 98.19163 38141 ft 417 kts 297°
2026-04-27 16:29 54.33354 97.97510 38131 ft 418 kts 297°
2026-04-27 16:30 54.38993 97.80201 38128 ft 419 kts 297°
2026-04-27 16:31 54.46064 97.58360 38126 ft 420 kts 297°
2026-04-27 16:32 54.50305 97.45159 38134 ft 421 kts 296°
2026-04-27 16:33 54.54542 97.31899 38133 ft 422 kts 296°
2026-04-27 16:33 54.57365 97.23021 38139 ft 422 kts 296°
2026-04-27 16:34 54.60167 97.14179 38137 ft 423 kts 296°
2026-04-27 16:34 54.63000 97.05208 38137 ft 423 kts 296°
2026-04-27 16:35 54.65786 96.96349 38134 ft 423 kts 296°
2026-04-27 16:36 54.69996 96.82902 38129 ft 424 kts 296°
2026-04-27 16:36 54.72787 96.73952 38128 ft 425 kts 295°
2026-04-27 16:37 54.75292 96.64735 38129 ft 422 kts 285°
2026-04-27 16:37 54.76553 96.54857 38131 ft 420 kts 279°
2026-04-27 16:38 54.77696 96.44916 38138 ft 421 kts 279°
2026-04-27 16:38 54.78853 96.34985 38120 ft 421 kts 279°
2026-04-27 16:39 54.80022 96.25030 38146 ft 421 kts 279°
2026-04-27 16:39 54.81178 96.15163 38138 ft 420 kts 279°
2026-04-27 16:40 54.82334 96.05234 38135 ft 420 kts 279°
2026-04-27 16:40 54.83481 95.95300 38154 ft 420 kts 279°
2026-04-27 16:41 54.84620 95.85352 38139 ft 419 kts 279°
2026-04-27 16:41 54.85722 95.75657 38132 ft 418 kts 279°
2026-04-27 16:42 54.86840 95.65754 38147 ft 417 kts 279°
2026-04-27 16:42 54.87947 95.55854 38139 ft 417 kts 279°
2026-04-27 16:43 54.89047 95.45953 38148 ft 418 kts 278°
2026-04-27 16:43 54.90132 95.36102 38153 ft 418 kts 278°
2026-04-27 16:44 54.91217 95.26181 38143 ft 418 kts 278°
2026-04-27 16:44 54.92286 95.16323 38148 ft 418 kts 278°
2026-04-27 16:45 54.93355 95.06380 38144 ft 418 kts 278°
2026-04-27 16:45 54.94417 94.96433 38149 ft 418 kts 278°
2026-04-27 16:46 54.95471 94.86471 38153 ft 419 kts 278°
2026-04-27 16:46 54.96517 94.76504 38149 ft 419 kts 278°
2026-04-27 16:47 54.97557 94.66514 38159 ft 419 kts 278°
2026-04-27 16:47 54.98576 94.56639 38157 ft 420 kts 278°
2026-04-27 16:48 54.99602 94.46613 38160 ft 420 kts 278°
2026-04-27 16:48 55.00618 94.36605 38191 ft 420 kts 277°
2026-04-27 16:49 55.02122 94.21614 38175 ft 421 kts 277°
2026-04-27 16:49 55.03116 94.11605 38185 ft 421 kts 277°
2026-04-27 16:50 55.04108 94.01534 38184 ft 421 kts 277°
2026-04-27 16:50 55.05091 93.91456 38191 ft 421 kts 277°
2026-04-27 16:51 55.06065 93.81378 38218 ft 421 kts 277°
2026-04-27 16:51 55.07030 93.71307 38203 ft 420 kts 277°
2026-04-27 16:52 55.07984 93.61276 38192 ft 418 kts 277°
2026-04-27 16:52 55.08918 93.51351 38204 ft 416 kts 277°
2026-04-27 16:53 55.09846 93.41392 38192 ft 414 kts 277°
2026-04-27 16:53 55.10761 93.31479 38204 ft 413 kts 277°
2026-04-27 16:54 55.11663 93.21602 38204 ft 411 kts 276°
2026-04-27 16:54 55.12559 93.11727 38218 ft 411 kts 276°
2026-04-27 16:55 55.13446 93.01862 38199 ft 411 kts 276°
2026-04-27 16:55 55.14324 92.91997 38198 ft 412 kts 276°
2026-04-27 16:56 55.15196 92.82099 38216 ft 412 kts 276°
2026-04-27 16:56 55.16064 92.72162 38207 ft 414 kts 275°
2026-04-27 16:57 55.16927 92.62185 38208 ft 415 kts 275°
2026-04-27 16:57 55.17782 92.52215 38215 ft 418 kts 275°
2026-04-27 16:58 55.18637 92.42135 38212 ft 420 kts 275°
2026-04-27 16:58 55.19491 92.31993 38198 ft 422 kts 275°
2026-04-27 16:59 55.20342 92.21789 38204 ft 423 kts 275°
2026-04-27 16:59 55.21187 92.11568 38200 ft 425 kts 275°
2026-04-27 17:00 55.22443 91.96162 38202 ft 427 kts 275°
2026-04-27 17:01 55.23272 91.85839 38199 ft 428 kts 275°
2026-04-27 17:01 55.24093 91.75512 38207 ft 428 kts 275°
2026-04-27 17:02 55.24771 91.66906 38211 ft 428 kts 275°
2026-04-27 17:02 55.25707 91.54892 38231 ft 425 kts 275°
2026-04-27 17:03 55.26486 91.44776 38192 ft 414 kts 275°
2026-04-27 17:03 55.27105 91.36652 38206 ft 412 kts 275°
2026-04-27 17:04 55.27854 91.26700 38212 ft 411 kts 275°
2026-04-27 17:04 55.28592 91.16776 38211 ft 411 kts 275°
2026-04-27 17:05 55.29327 91.06798 38233 ft 412 kts 274°
2026-04-27 17:05 55.30054 90.96812 38217 ft 414 kts 274°
2026-04-27 17:06 55.30772 90.86829 38224 ft 415 kts 274°
2026-04-27 17:06 55.31489 90.76754 38217 ft 416 kts 274°
2026-04-27 17:07 55.32199 90.66653 38221 ft 417 kts 274°
2026-04-27 17:07 55.32904 90.56515 38220 ft 418 kts 274°
2026-04-27 17:08 55.33600 90.46361 38231 ft 418 kts 274°
2026-04-27 17:08 55.34284 90.36272 38225 ft 418 kts 274°
2026-04-27 17:09 55.34962 90.26135 38227 ft 417 kts 274°
2026-04-27 17:09 55.35630 90.16034 38232 ft 416 kts 274°
2026-04-27 17:10 55.36287 90.05945 38242 ft 415 kts 273°
2026-04-27 17:10 55.36930 89.95957 38253 ft 414 kts 273°
2026-04-27 17:11 55.37569 89.85905 38235 ft 413 kts 273°
2026-04-27 17:11 55.38505 89.70914 38235 ft 412 kts 273°
2026-04-27 17:12 55.39426 89.55878 38235 ft 411 kts 273°
2026-04-27 17:13 55.40028 89.45864 38239 ft 411 kts 273°
2026-04-27 17:13 55.40624 89.35829 38242 ft 412 kts 272°
2026-04-27 17:14 55.41207 89.25849 38245 ft 412 kts 272°
2026-04-27 17:14 55.41787 89.15794 38242 ft 413 kts 272°
2026-04-27 17:15 55.42361 89.05708 38241 ft 414 kts 272°
2026-04-27 17:15 55.42928 88.95615 38252 ft 414 kts 272°
2026-04-27 17:16 55.43074 88.85528 38257 ft 411 kts 263°
2026-04-27 17:16 55.42563 88.75504 38247 ft 411 kts 263°
2026-04-27 17:17 55.42050 88.65472 38242 ft 411 kts 263°
2026-04-27 17:17 55.41551 88.55466 38238 ft 411 kts 263°
2026-04-27 17:18 55.40802 88.40488 38231 ft 411 kts 263°
2026-04-27 17:18 55.40291 88.30463 38249 ft 411 kts 263°
2026-04-27 17:19 55.39773 88.20449 38240 ft 411 kts 262°
2026-04-27 17:19 55.39246 88.10436 38239 ft 411 kts 262°
2026-04-27 17:20 55.38711 88.00424 38221 ft 411 kts 262°
2026-04-27 17:20 55.38167 87.90417 38224 ft 411 kts 262°
2026-04-27 17:21 55.37617 87.80429 38231 ft 410 kts 262°
2026-04-27 17:21 55.37059 87.70434 38225 ft 411 kts 262°
2026-04-27 17:22 55.36496 87.60489 38229 ft 411 kts 262°
2026-04-27 17:22 55.35919 87.50476 38222 ft 412 kts 262°
2026-04-27 17:23 55.35336 87.40453 38207 ft 412 kts 262°
2026-04-27 17:23 55.34745 87.30421 38209 ft 413 kts 262°
2026-04-27 17:24 55.34149 87.20441 38222 ft 413 kts 262°
2026-04-27 17:24 55.33540 87.10387 38213 ft 414 kts 262°
2026-04-27 17:25 55.32923 87.00327 38215 ft 414 kts 262°
2026-04-27 17:25 55.32296 86.90250 38202 ft 415 kts 262°
2026-04-27 17:26 55.31665 86.80248 38212 ft 415 kts 262°
2026-04-27 17:26 55.31021 86.70177 38212 ft 415 kts 262°
2026-04-27 17:27 55.30369 86.60098 38203 ft 416 kts 262°
2026-04-27 17:27 55.29706 86.49987 37985 ft 420 kts 261°
2026-04-27 17:28 55.29368 86.44888 37504 ft 421 kts 261°
2026-04-27 17:28 55.29029 86.39804 36930 ft 418 kts 261°
2026-04-27 17:28 55.28352 86.29720 35719 ft 415 kts 260°
2026-04-27 17:29 55.28011 86.24702 35139 ft 413 kts 260°
2026-04-27 17:29 55.27673 86.19728 34719 ft 408 kts 260°
2026-04-27 17:29 55.27337 86.14821 34277 ft 403 kts 259°
2026-04-27 17:29 55.27001 86.09952 33799 ft 399 kts 260°
2026-04-27 17:30 55.26731 86.05176 33556 ft 389 kts 261°
2026-04-27 17:30 55.26309 85.95884 32854 ft 376 kts 261°
2026-04-27 17:30 55.26109 85.91383 32432 ft 372 kts 261°
2026-04-27 17:31 55.25902 85.86884 32030 ft 368 kts 261°
2026-04-27 17:31 55.25692 85.82439 31602 ft 364 kts 260°
2026-04-27 17:31 55.25480 85.78036 31204 ft 360 kts 260°
2026-04-27 17:31 55.25266 85.73690 30808 ft 356 kts 259°
2026-04-27 17:32 55.25051 85.69371 30410 ft 353 kts 259°
2026-04-27 17:32 55.24632 85.61048 29569 ft 344 kts 259°
2026-04-27 17:32 55.24419 85.56889 29177 ft 340 kts 260°
2026-04-27 17:33 55.24208 85.52785 28745 ft 336 kts 260°
2026-04-27 17:33 55.23998 85.48726 28336 ft 332 kts 260°
2026-04-27 17:33 55.23789 85.44721 27944 ft 328 kts 260°
2026-04-27 17:33 55.23584 85.40806 27553 ft 325 kts 260°
2026-04-27 17:34 55.23377 85.36879 27192 ft 322 kts 260°
2026-04-27 17:34 55.23172 85.33016 26802 ft 319 kts 260°
2026-04-27 17:34 55.22966 85.29157 26430 ft 318 kts 260°
2026-04-27 17:34 55.22759 85.25311 26041 ft 316 kts 260°
2026-04-27 17:35 55.22550 85.21467 25671 ft 320 kts 261°
2026-04-27 17:35 55.22333 85.17520 25299 ft 330 kts 261°
2026-04-27 17:35 55.22112 85.13486 24905 ft 330 kts 261°
2026-04-27 17:35 55.21894 85.09502 24511 ft 328 kts 261°
2026-04-27 17:36 55.21679 85.05589 24128 ft 325 kts 261°
2026-04-27 17:36 55.21461 85.01662 23739 ft 322 kts 262°
2026-04-27 17:36 55.21244 84.97769 23281 ft 320 kts 262°
2026-04-27 17:36 55.21029 84.93924 22912 ft 315 kts 262°
2026-04-27 17:37 55.20814 84.90120 22542 ft 311 kts 262°
2026-04-27 17:37 55.20601 84.86373 22174 ft 308 kts 262°
2026-04-27 17:37 55.20390 84.82669 21795 ft 304 kts 262°
2026-04-27 17:37 55.20179 84.78995 21443 ft 301 kts 262°
2026-04-27 17:38 55.19971 84.75404 21066 ft 299 kts 262°
2026-04-27 17:38 55.19762 84.71805 20726 ft 296 kts 262°
2026-04-27 17:38 55.19476 84.68247 20287 ft 295 kts 256°
2026-04-27 17:38 55.18931 84.64763 19856 ft 295 kts 252°
2026-04-27 17:39 55.18316 84.61339 19477 ft 294 kts 252°
2026-04-27 17:39 55.17694 84.57937 19115 ft 293 kts 252°
2026-04-27 17:39 55.17081 84.54547 18754 ft 291 kts 252°
2026-04-27 17:39 55.16479 84.51174 18389 ft 289 kts 252°
2026-04-27 17:40 55.15885 84.47825 18010 ft 288 kts 253°
2026-04-27 17:40 55.15301 84.44499 17675 ft 284 kts 253°
2026-04-27 17:40 55.14724 84.41197 17332 ft 282 kts 253°
2026-04-27 17:40 55.14152 84.37915 16982 ft 283 kts 253°
2026-04-27 17:41 55.13583 84.34660 16645 ft 284 kts 253°
2026-04-27 17:41 55.13000 84.31319 16286 ft 292 kts 253°
2026-04-27 17:41 55.12398 84.27879 15938 ft 300 kts 253°
2026-04-27 17:41 55.11785 84.24384 15569 ft 299 kts 253°
2026-04-27 17:42 55.11178 84.20927 15208 ft 297 kts 253°
2026-04-27 17:42 55.10577 84.17510 14852 ft 294 kts 253°
2026-04-27 17:42 55.09979 84.14110 14506 ft 292 kts 253°
2026-04-27 17:42 55.09381 84.10717 14146 ft 291 kts 254°
2026-04-27 17:43 55.08785 84.07353 13769 ft 289 kts 253°
2026-04-27 17:43 55.08199 84.04048 13396 ft 287 kts 254°
2026-04-27 17:43 55.07748 84.00658 12941 ft 288 kts 262°
2026-04-27 17:43 55.07521 83.97200 12569 ft 286 kts 264°
2026-04-27 17:44 55.07341 83.93745 12203 ft 285 kts 264°
2026-04-27 17:44 55.07163 83.90309 11861 ft 283 kts 264°
2026-04-27 17:44 55.06977 83.86898 11515 ft 282 kts 264°
2026-04-27 17:44 55.06783 83.83498 11177 ft 281 kts 264°
2026-04-27 17:45 55.06583 83.80116 10843 ft 279 kts 263°
2026-04-27 17:45 55.06380 83.76765 10630 ft 274 kts 263°
2026-04-27 17:45 55.06180 83.73509 10500 ft 266 kts 263°
2026-04-27 17:45 55.05982 83.70344 10376 ft 258 kts 263°
2026-04-27 17:46 55.05790 83.67276 10252 ft 250 kts 263°
2026-04-27 17:46 55.05599 83.64265 9992 ft 249 kts 263°
2026-04-27 17:46 55.05410 83.61312 9742 ft 247 kts 263°
2026-04-27 17:46 55.05221 83.58350 9471 ft 245 kts 263°
2026-04-27 17:47 55.05031 83.55400 9206 ft 244 kts 263°
2026-04-27 17:47 55.04903 83.53419 9026 ft 243 kts 263°
2026-04-27 17:47 55.04652 83.49543 8689 ft 245 kts 263°
2026-04-27 17:47 55.04459 83.46557 8432 ft 251 kts 263°
2026-04-27 17:48 55.04259 83.43491 8160 ft 257 kts 263°
2026-04-27 17:48 55.04054 83.40390 7866 ft 257 kts 264°
2026-04-27 17:48 55.03851 83.37305 7587 ft 255 kts 264°
2026-04-27 17:48 55.03633 83.34239 7310 ft 254 kts 259°
2026-04-27 17:49 55.02899 83.31464 7101 ft 254 kts 235°
2026-04-27 17:49 55.01821 83.29009 6908 ft 256 kts 234°
2026-04-27 17:49 55.00725 83.26530 6645 ft 261 kts 234°
2026-04-27 17:49 54.99607 83.23992 6258 ft 264 kts 234°
2026-04-27 17:50 54.98497 83.21463 6007 ft 261 kts 234°
2026-04-27 17:50 54.96539 83.16995 5599 ft 254 kts 234°
2026-04-27 17:50 54.95471 83.14557 5414 ft 253 kts 234°
2026-04-27 17:51 54.94750 83.12914 5281 ft 253 kts 234°
2026-04-27 17:51 54.93773 83.09331 4990 ft 249 kts 268°
2026-04-27 17:51 54.94067 83.06415 4732 ft 246 kts 295°
2026-04-27 17:51 54.95004 83.03965 4467 ft 243 kts 311°
2026-04-27 17:52 54.95742 83.02506 4290 ft 242 kts 312°
2026-04-27 17:52 54.96875 83.00336 4012 ft 241 kts 313°
2026-04-27 17:52 54.97996 82.98171 3739 ft 240 kts 312°
2026-04-27 17:52 54.99112 82.96005 3480 ft 240 kts 312°
2026-04-27 17:53 55.00210 82.93855 3192 ft 235 kts 312°
2026-04-27 17:53 55.01272 82.91760 2920 ft 227 kts 312°
2026-04-27 17:53 55.02297 82.89734 2655 ft 219 kts 312°
2026-04-27 17:53 55.03197 82.87662 2394 ft 212 kts 293°
2026-04-27 17:54 55.03219 82.85208 2234 ft 202 kts 255°
2026-04-27 17:54 55.02857 82.82923 2005 ft 190 kts 266°
2026-04-27 17:54 55.02716 82.80731 1779 ft 175 kts 262°
2026-04-27 17:54 55.02497 82.78729 1648 ft 166 kts 263°
2026-04-27 17:55 55.02307 82.76705 1448 ft 169 kts 263°
2026-04-27 17:55 55.02127 82.74740 1212 ft 160 kts 262°
2026-04-27 17:55 55.01957 82.72904 977 ft 148 kts 262°
2026-04-27 17:55 55.01788 82.71168 731 ft 145 kts 256°
2026-04-27 17:56 55.01634 82.69477 577 ft 139 kts 261°
2026-04-27 17:56 55.01486 82.67839 419 ft 136 kts 260°
2026-04-27 17:56 55.01351 82.66302 375 ft 117 kts 256°
2026-04-27 17:56 55.01245 82.65092 372 ft 80 kts 261°
2026-04-27 17:57 55.01178 82.64360 372 ft 40 kts 261°
2026-04-27 17:57 55.01153 82.64080 374 ft 11 kts 260°
2026-04-27 17:57 55.01115 82.63990 374 ft 8 kts 195°
2026-04-27 17:57 55.01071 82.63995 374 ft 7 kts 172°
2026-04-27 17:58 55.01027 82.64008 373 ft 5 kts 168°
2026-04-27 17:58 55.00996 82.64027 372 ft 5 kts 145°
2026-04-27 17:58 55.00982 82.64080 372 ft 5 kts 96°
2026-04-27 17:58 55.00980 82.64139 372 ft 5 kts 94°
2026-04-27 17:59 55.00973 82.64219 372 ft 9 kts 102°
2026-04-27 17:59 55.00957 82.64351 372 ft 12 kts 102°
2026-04-27 17:59 55.00939 82.64489 372 ft 12 kts 103°
2026-04-27 17:59 55.00921 82.64624 372 ft 11 kts 103°
2026-04-27 18:00 55.00904 82.64755 372 ft 11 kts 103°
2026-04-27 18:00 55.00887 82.64882 372 ft 11 kts 103°
2026-04-27 18:00 55.00874 82.64985 372 ft 5 kts 101°
2026-04-27 18:00 55.00871 82.65041 372 ft 5 kts 86°
2026-04-27 18:01 55.00876 82.65096 372 ft 5 kts 79°
2026-04-27 18:01 55.00881 82.65149 372 ft 4 kts 86°
2026-04-27 18:01 55.00883 82.65203 372 ft 4 kts 86°
2026-04-27 18:01 55.00885 82.65255 372 ft 4 kts 86°
2026-04-27 18:02 55.00887 82.65305 372 ft 2 kts 84°
2026-04-27 18:02 55.00887 82.65306 372 ft 0 kts 83°
2026-04-27 18:02 55.00888 82.65320 372 ft 3 kts 82°
2026-04-27 18:02 55.00893 82.65382 372 ft 3 kts 82°
2026-04-27 18:03 55.00897 82.65430 372 ft 4 kts 81°
2026-04-27 18:03 55.00902 82.65479 372 ft 4 kts 81°
2026-04-27 18:03 55.00902 82.65480 372 ft 0 kts 80°
2026-04-27 18:05 55.00895 82.65423 372 ft 14 kts 64°
2026-04-27 18:05 55.00887 82.65418 372 ft 8 kts 321°
2026-04-27 18:05 55.00902 82.65453 372 ft 7 kts 29°
2026-04-27 18:06 55.00923 82.65456 372 ft 2 kts 356°